RH
81 82 85 81 75 72 66 58 55 56 57 55 51 43 35 32 31 30 30 29 27 26 26 25 26 27 30 38 44 41 37 36 39 43 45 44 41 39 39 38 38 38 39 40 42 43 44 44 41 39 38 37 35 33 32 30 29 29 30 33 36 37 38 38 39 39 39 37 38 38 37 38 39 40
79 79 83 76 68 66 63 60 60 59 57 53 48 39 31 29 29 27 29 30 28 28 28 26 24 24 28 36 40 38 36 39 42 42 45 47 42 40 41 40 40 40 39 40 41 42 44 45 45 42 39 38 36 34 33 32 31 31 32 35 37 39 41 41 42 43 43 42 42 43 41 41 41 42
79 80 82 73 66 69 65 61 61 58 55 51 44 38 32 29 28 25 25 29 31 31 32 29 25 23 26 32 37 38 36 38 40 41 44 45 41 41 42 42 42 42 41 42 41 42 43 44 46 45 42 40 38 36 35 33 33 33 34 35 37 41 42 43 43 43 44 44 44 46 45 43 44 44
77 79 81 74 70 71 65 61 58 54 54 50 42 37 33 31 30 28 25 28 34 36 35 32 28 25 26 30 34 37 36 36 40 42 42 40 39 41 41 41 42 42 42 42 43 43 43 43 46 47 45 42 40 39 36 34 34 35 36 38 40 41 42 43 44 44 44 45 45 46 47 46 46 46
75 77 76 74 75 71 64 60 54 50 51 48 40 36 34 31 32 31 26 26 33 39 40 36 31 28 28 29 31 34 36 37 38 40 41 41 40 39 38 39 40 42 42 42 42 43 44 44 45 47 47 44 41 40 38 36 35 35 37 40 42 43 43 44 45 45 46 47 47 48 49 49 49 49
72 74 71 73 78 72 66 60 50 45 46 41 36 35 33 31 31 30 27 25 29 38 42 39 33 31 31 30 30 32 35 39 38 37 40 43 41 37 37 38 38 40 42 41 40 41 42 43 44 46 48 46 43 41 39 37 36 35 36 38 41 43 44 45 46 46 47 48 48 49 49 49 50 51
57 61 61 68 77 76 72 63 49 43 41 35 30 32 33 32 30 30 28 26 28 33 37 37 34 34 36 33 30 31 35 39 40 36 37 40 40 38 39 39 37 39 41 41 40 40 40 40 41 45 47 47 45 42 40 38 37 36 36 37 40 41 43 45 45 46 47 46 46 46 45 46 47 49
45 50 52 57 68 74 76 68 54 47 42 35 31 31 32 33 33 34 33 31 29 29 32 33 31 32 36 35 31 30 32 37 39 37 34 36 36 36 38 39 38 39 41 42 41 41 40 40 40 44 47 47 46 43 41 39 38 38 38 39 40 41 42 43 43 43 43 42 41 41 42 43 44 46
44 48 50 53 59 65 69 67 59 53 48 40 34 33 32 32 34 38 38 35 33 31 31 32 31 30 33 34 33 30 30 33 36 36 33 32 34 34 35 36 37 39 41 41 41 41 41 41 41 44 47 48 46 43 41 40 40 39 39 40 40 39 39 38 38 38 37 38 38 39 41 42 44 46
45 46 49 54 58 57 57 59 59 58 56 49 40 37 35 33 34 40 41 37 36 35 32 32 32 31 31 32 32 31 31 31 32 34 32 31 32 33 35 37 38 40 41 39 38 40 42 42 43 46 48 48 46 44 42 41 40 40 40 39 38 36 35 33 33 34 35 37 38 39 41 42 44 48
45 45 47 51 54 53 52 55 59 60 59 54 47 43 41 37 35 38 39 37 36 36 35 33 32 33 33 32 32 32 32 31 30 31 31 32 32 33 37 41 41 43 44 41 37 39 44 45 46 47 48 48 46 44 43 42 41 41 39 38 36 35 33 33 34 36 37 38 39 39 40 42 44 48
45 44 46 47 48 50 49 49 53 54 51 50 46 44 44 42 40 40 39 38 36 35 35 34 32 32 32 32 33 33 31 31 31 31 31 33 33 34 38 42 44 47 51 49 45 44 47 48 47 48 48 47 46 44 43 42 42 41 39 38 37 35 35 37 38 39 39 39 39 40 42 44 47 48
44 42 45 48 47 46 44 42 44 44 43 45 44 44 46 45 43 42 40 39 38 35 34 34 33 32 32 33 35 36 35 34 33 32 32 33 33 33 38 44 46 47 50 50 48 48 49 50 49 49 49 49 48 46 45 45 46 43 40 38 37 37 38 41 41 40 39 39 41 44 46 48 50 52
47 44 46 47 44 40 38 39 39 38 38 40 42 45 48 47 45 43 40 38 37 36 35 34 34 33 32 33 35 36 37 38 37 35 34 35 36 34 36 44 48 47 46 45 45 47 49 51 50 49 50 53 54 53 54 57 54 47 41 38 37 37 39 42 43 41 41 42 44 47 50 52 54 56
47 46 47 47 45 43 44 44 41 38 36 35 36 38 40 42 43 44 43 42 39 38 36 35 34 35 34 35 36 36 37 38 38 39 38 39 39 37 37 42 46 48 48 46 45 47 51 53 51 47 49 55 60 58 58 60 55 45 40 37 36 37 40 43 44 42 43 45 47 50 54 56 58 60
46 47 51 54 53 50 47 48 48 45 41 38 37 37 37 38 39 40 42 43 43 43 42 39 37 37 38 38 38 38 39 40 39 39 41 42 40 39 40 39 42 48 52 50 48 48 54 57 52 46 48 54 60 59 56 55 50 42 38 37 37 39 42 44 45 45 46 49 51 54 56 58 60 62
51 52 53 56 59 57 50 47 51 53 52 49 44 41 40 40 40 40 41 42 45 47 48 47 44 42 43 43 43 43 45 46 46 43 42 44 44 43 43 43 47 53 55 55 51 49 55 59 52 48 50 54 61 63 56 50 45 39 38 38 39 43 47 48 49 49 51 54 56 58 59 61 62 63
60 60 58 54 55 59 58 55 57 59 60 61 57 52 50 49 47 45 44 44 46 48 49 51 50 49 48 48 49 52 54 54 54 50 47 49 49 50 53 54 57 59 58 57 55 50 53 57 53 49 51 55 62 66 60 52 46 41 38 40 44 47 50 52 52 52 55 57 59 60 61 62 63 63
72 72 71 66 63 65 68 68 66 63 63 66 67 63 60 59 56 55 53 49 47 49 51 53 54 54 54 55 59 64 65 60 58 56 55 58 58 60 64 64 62 63 61 59 59 54 51 55 55 50 49 54 59 62 62 58 51 45 41 42 48 51 51 53 53 54 58 59 60 62 63 64 64 64
82 84 83 80 77 77 80 81 75 67 65 68 70 68 63 60 59 60 62 56 47 48 53 56 58 57 57 59 62 67 66 62 62 64 63 65 67 66 66 62 61 63 61 61 66 63 55 54 55 50 48 52 54 55 59 62 58 53 48 45 49 52 52 53 56 57 59 60 62 64 64 65 65 65
78 83 80 75 80 85 88 89 85 78 75 76 78 75 70 67 64 62 66 64 55 51 51 54 57 57 57 57 58 60 60 57 63 68 66 65 67 65 62 60 60 59 58 60 67 64 55 52 53 49 46 50 52 49 51 59 63 58 51 48 52 55 55 55 57 59 61 62 63 65 66 67 66 66
67 70 66 61 67 77 78 77 77 76 76 81 86 83 77 78 78 72 72 75 72 66 62 60 60 60 60 60 59 59 60 58 61 67 66 64 64 64 62 60 59 57 55 58 62 59 54 52 52 49 45 47 50 46 44 56 67 63 56 55 59 62 63 63 62 60 61 62 64 65 68 69 69 71
55 61 61 52 48 52 54 54 56 58 62 70 82 87 84 81 80 77 74 76 79 79 76 71 69 68 67 66 64 63 63 63 63 65 68 67 65 64 62 59 58 55 52 55 59 58 53 51 51 51 46 42 44 46 46 53 62 63 60 60 63 66 68 69 66 63 63 65 66 67 69 70 71 74
43 50 56 55 52 47 40 38 40 44 47 52 62 76 85 83 79 79 78 76 76 80 82 79 77 77 76 75 74 73 71 69 67 66 69 71 69 66 63 60 57 54 50 54 58 56 52 51 51 51 48 40 37 43 49 51 54 57 57 56 58 63 67 67 66 65 64 66 67 69 72 72 71 73
42 45 49 56 60 52 36 29 31 33 37 41 43 52 65 71 72 78 84 85 81 79 79 81 80 78 77 77 78 79 77 75 73 70 70 73 74 71 66 61 55 52 53 55 55 54 54 52 50 50 50 43 35 36 44 49 51 55 58 57 57 61 64 65 62 61 62 66 70 74 75 73 71 71
49 50 52 60 65 58 42 31 30 29 32 36 37 37 40 45 49 57 70 83 89 83 77 76 76 75 73 72 71 73 74 74 75 74 71 73 76 73 69 63 55 53 57 55 51 53 55 52 48 48 47 44 40 37 39 43 49 56 61 61 61 62 63 62 57 55 58 64 70 75 75 73 72 71
59 61 66 70 69 60 48 41 40 37 35 35 35 35 36 37 38 41 49 65 84 91 85 78 75 73 70 65 63 65 68 69 71 74 73 74 76 74 69 65 58 56 58 52 48 54 56 52 51 51 47 44 43 41 40 41 47 55 58 58 60 62 60 57 55 55 57 59 63 69 71 71 72 71
68 71 73 68 59 52 49 47 45 42 40 41 41 41 44 45 44 45 49 60 78 90 90 84 78 72 67 62 59 59 61 63 68 73 74 74 75 72 68 65 60 58 56 50 49 56 58 54 57 60 55 49 44 42 42 42 45 50 52 53 57 59 54 51 55 59 60 61 64 67 68 69 71 71
70 70 67 58 51 51 51 51 52 52 56 62 60 52 49 50 53 60 67 73 78 79 78 76 73 67 62 59 58 58 59 63 69 74 73 71 70 67 63 62 60 57 55 53 56 61 59 57 62 65 59 52 47 45 45 45 45 48 51 54 56 56 53 54 59 62 63 65 67 68 69 70 71 70
74 75 69 58 53 54 54 58 64 64 65 68 63 56 57 62 69 74 76 76 75 70 67 67 65 59 56 57 58 61 63 65 68 71 70 68 67 64 60 59 59 57 55 56 59 61 60 60 65 66 59 55 53 51 51 51 49 50 53 56 56 55 55 57 60 64 67 70 71 71 71 72 71 69
78 77 70 61 59 60 60 63 67 65 65 67 64 63 67 72 75 75 72 72 75 74 70 68 65 59 57 59 64 68 69 68 67 67 65 63 62 62 59 59 63 64 62 62 62 60 60 63 66 65 61 59 58 58 58 57 55 53 53 54 54 54 56 59 62 66 71 76 75 72 71 71 68 66
80 76 70 64 62 62 62 64 64 63 64 66 65 65 66 65 67 69 69 71 77 81 80 76 73 70 64 61 67 72 71 67 64 63 62 60 59 60 61 61 64 65 66 68 66 60 60 66 69 68 66 64 62 63 63 59 56 55 53 52 56 60 63 65 66 68 74 79 77 72 70 69 66 68
81 78 73 66 62 63 64 63 61 59 59 60 62 65 66 65 64 62 61 61 68 80 86 84 83 84 77 69 71 73 70 67 67 66 67 66 62 61 61 61 60 60 62 66 67 64 65 70 73 72 71 69 67 67 64 59 55 53 52 55 60 64 66 69 71 73 78 79 75 71 69 66 66 72
79 76 70 64 61 61 62 61 60 60 59 58 58 59 61 63 63 61 62 62 64 74 86 91 95 97 91 85 83 78 73 73 74 72 73 73 69 66 64 62 60 59 58 60 64 67 70 73 73 73 72 72 72 72 68 61 54 51 55 62 68 67 68 72 75 77 79 77 73 70 66 61 64 73
79 73 65 59 57 57 58 61 62 61 60 60 60 59 59 60 60 60 62 62 61 67 78 89 95 98 98 98 93 85 79 80 79 76 74 72 68 65 64 64 63 60 56 55 59 64 66 67 67 67 67 69 70 71 71 68 62 58 60 65 69 70 70 74 77 77 76 74 72 68 62 57 61 70
76 68 61 59 59 62 65 68 67 66 66 66 65 64 61 59 59 59 59 60 63 67 74 82 88 90 94 99 96 87 82 80 78 74 70 64 62 61 61 61 60 56 52 51 54 58 59 59 59 57 56 57 54 54 62 68 66 64 67 69 69 71 73 76 78 76 73 72 70 66 62 59 61 67
74 71 69 68 69 72 74 74 73 73 73 72 72 71 67 63 61 61 61 63 67 70 74 81 86 88 91 95 93 87 82 78 74 72 69 65 66 67 67 66 64 59 54 53 55 57 56 56 56 53 51 48 42 41 58 73 71 67 71 73 71 72 75 76 73 69 67 69 67 63 62 60 61 67
75 77 78 77 76 77 77 78 80 81 80 79 79 78 75 70 65 64 65 66 69 72 74 78 83 88 94 95 90 84 81 77 74 75 74 73 71 70 69 70 68 64 62 61 59 59 57 56 55 53 50 47 38 34 48 66 69 70 76 77 74 74 74 72 67 64 64 67 64 61 62 62 62 66
73 76 77 76 76 76 76 77 79 81 83 86 84 80 76 73 70 69 70 70 72 76 78 79 83 89 95 93 87 82 79 77 75 76 75 74 73 71 69 68 68 69 70 68 64 61 58 53 50 50 49 49 46 42 43 48 54 66 76 79 79 78 73 66 63 63 64 65 63 59 59 63 67 71
73 76 76 77 78 78 80 80 81 85 90 92 90 85 80 76 74 73 74 75 77 80 82 85 89 92 93 89 83 79 78 76 75 75 76 75 74 72 69 67 67 68 68 67 64 61 56 53 55 57 57 58 61 63 61 56 56 65 72 75 80 82 77 70 69 67 63 62 63 59 56 58 64 71
80 81 80 83 85 87 88 87 89 94 97 95 91 88 82 77 78 80 81 83 85 85 86 89 91 91 89 85 80 77 79 80 80 80 80 78 76 75 72 67 65 65 63 62 62 60 57 58 63 65 65 67 69 70 68 64 63 66 67 68 72 75 74 75 79 77 71 67 65 59 54 54 58 63
87 87 87 90 92 93 94 93 94 98 98 93 90 86 80 78 81 84 85 89 91 90 90 91 91 89 87 85 83 82 84 86 86 84 83 80 78 78 74 68 65 63 60 56 56 58 60 64 68 69 69 72 72 68 63 61 62 64 65 65 68 70 71 75 80 79 74 71 68 61 56 56 57 58
92 92 91 91 89 89 90 91 92 94 93 89 87 85 81 82 88 90 91 93 94 93 93 95 95 93 92 91 89 88 88 88 86 83 82 82 80 77 71 65 62 59 55 53 54 58 62 67 71 71 69 67 66 62 61 62 63 62 62 63 66 71 76 80 80 75 68 65 65 65 66 65 62 60
96 92 88 89 89 88 88 87 87 88 88 87 89 90 89 91 95 97 97 97 96 94 95 95 95 93 92 91 90 90 89 88 85 84 84 84 80 73 67 63 60 59 58 59 59 59 61 65 67 64 60 59 61 62 63 65 64 62 61 62 64 69 75 79 80 78 73 67 64 65 69 73 74 74
99 95 92 93 95 95 94 89 84 84 87 90 93 97 98 98 98 99 99 98 97 96 96 95 91 89 88 88 89 90 90 87 82 80 79 76 72 67 65 65 64 63 64 63 59 57 59 61 61 59 58 61 65 67 68 68 67 64 63 63 63 64 66 69 73 76 75 73 69 66 66 73 81 82
Wind_Speed
7 8 11 12 11 10 9 9 9 10 9 10 11 10 8 8 6 5 5 6 8 10 9 9 9 10 11 10 11 12 12 13 13 10 10 10 10 9 8 7 7 6 5 6 7 9 11 11 12 11 11 11 11 11 11 10 10 9 8 8 8 8 8 8 8 9 9 10 11 12 13 14 16 17
8 8 10 10 10 10 10 9 10 11 12 12 11 8 7 7 7 6 6 5 8 10 8 8 9 11 12 11 12 11 10 12 11 9 10 10 10 10 8 6 6 4 3 2 2 4 6 7 8 8 8 9 9 9 9 9 8 8 8 8 8 8 8 7 7 8 8 8 9 9 10 11 13 14
8 9 10 10 10 10 10 10 10 11 11 11 10 8 6 6 6 8 8 6 7 9 8 7 9 12 13 12 13 11 10 13 13 9 10 10 10 10 8 7 7 5 4 2 2 1 1 3 4 5 6 7 7 8 8 8 7 7 7 7 8 8 8 8 8 8 8 8 8 8 9 9 11 12
9 9 10 11 11 11 11 11 12 11 11 10 10 8 7 7 7 8 8 8 8 8 8 8 9 12 13 13 14 12 10 13 14 11 10 12 12 10 9 9 8 7 6 5 5 4 4 3 2 3 4 5 6 7 7 7 7 6 6 7 8 8 8 8 8 8 9 9 9 10 10 10 11 12
8 9 10 11 11 11 12 12 13 12 12 11 10 10 9 8 8 7 7 9 10 8 7 8 9 11 13 13 13 14 12 13 15 13 11 12 13 12 11 11 11 10 9 8 8 7 6 6 5 4 3 4 5 6 7 7 7 7 7 7 8 8 8 8 8 9 10 10 11 11 11 12 12 13
8 8 9 10 10 11 11 12 13 13 13 12 11 10 10 9 9 7 6 7 10 9 8 8 9 11 13 13 13 15 14 13 15 15 13 12 13 12 11 11 12 12 11 11 10 9 9 8 7 7 6 5 5 6 7 7 7 6 7 7 7 8 8 8 8 9 9 10 11 12 13 13 14 14
7 7 8 9 10 10 10 11 12 13 12 11 11 11 10 9 9 8 6 5 7 9 10 10 9 11 13 13 12 14 14 13 14 15 14 13 13 13 12 11 11 13 13 14 13 12 11 10 9 9 8 7 7 7 7 7 6 6 6 6 7 7 8 8 9 10 10 11 13 13 14 15 14 14
7 6 7 8 9 10 10 11 12 12 11 10 10 11 10 9 8 8 6 6 6 7 9 10 10 10 13 13 12 13 14 14 14 14 14 14 13 13 12 11 11 14 14 14 15 15 13 12 11 10 10 9 8 8 7 7 6 6 6 7 7 8 8 10 11 12 13 13 14 15 15 15 15 14
6 6 6 6 8 10 11 11 11 11 12 10 10 10 10 9 8 7 7 7 7 7 8 10 10 10 11 12 12 12 13 14 14 14 14 14 13 13 13 12 13 16 17 16 17 16 15 14 12 12 11 10 9 8 7 7 7 7 7 8 8 9 10 12 12 13 14 14 15 15 15 15 15 15
5 6 6 6 6 8 9 10 11 12 12 11 10 9 9 8 8 7 8 8 8 9 9 9 10 11 11 11 12 13 13 13 14 14 14 15 14 14 13 12 12 15 18 20 19 18 16 15 14 13 13 11 10 9 8 8 7 8 9 9 10 11 12 13 13 13 13 14 15 16 17 18 17 17
5 5 6 5 6 6 7 8 9 10 11 11 10 9 8 8 7 7 8 8 9 9 10 10 10 11 11 12 12 12 13 14 14 13 14 15 15 15 15 14 12 12 15 20 20 18 17 16 15 14 13 13 11 10 9 9 9 9 10 10 11 12 12 13 13 13 14 15 17 18 18 18 18 18
5 6 6 6 6 6 7 8 8 8 10 9 9 9 8 7 7 7 7 8 9 9 10 11 11 11 11 12 12 12 12 14 15 14 14 14 14 15 16 16 15 13 14 16 16 17 18 17 16 15 15 14 13 12 11 11 11 11 11 11 12 12 12 13 12 13 15 16 17 17 17 17 17 17
6 6 6 6 5 6 7 7 7 7 8 8 7 7 7 8 8 9 8 8 8 9 9 10 10 11 11 11 12 12 13 14 14 15 15 15 15 15 14 15 16 15 14 13 13 15 17 16 15 14 14 15 14 11 11 11 12 11 11 12 12 12 13 13 13 14 15 16 15 15 15 15 16 16
6 6 6 5 5 5 4 4 5 5 6 6 7 6 6 7 8 8 9 9 9 9 9 10 10 11 12 11 12 13 14 15 14 14 15 15 16 16 14 13 14 15 14 13 13 14 14 14 14 13 13 14 13 9 8 11 12 12 12 12 12 13 13 14 14 15 15 14 14 13 13 13 13 14
6 6 6 5 5 4 4 4 4 4 5 6 7 8 8 9 9 9 9 9 9 10 10 10 10 11 12 12 12 13 14 15 15 15 15 16 17 17 15 14 14 15 16 14 13 14 14 15 14 12 13 13 11 10 12 15 15 14 13 13 13 13 14 14 15 15 14 13 13 12 12 12 12 12
6 6 5 5 4 4 5 4 4 5 6 6 7 8 9 10 11 11 11 11 10 10 11 12 12 13 13 13 13 14 13 14 15 16 17 17 18 18 18 18 16 13 15 15 14 13 14 15 14 13 13 12 11 14 18 18 16 15 14 14 14 14 14 14 14 15 13 12 12 12 12 12 12 11
3 4 4 3 3 4 5 5 4 5 6 7 8 9 10 11 12 13 14 14 13 12 12 12 13 13 13 13 14 13 12 13 14 16 17 17 18 19 20 19 14 9 12 14 14 14 14 14 14 14 13 12 12 15 19 18 16 15 14 13 14 14 14 14 15 14 13 13 12 12 12 13 12 13
2 2 3 4 4 4 5 5 5 5 6 7 8 9 10 12 14 14 15 16 16 16 16 16 15 14 14 14 14 13 13 13 14 15 16 16 17 17 16 15 12 11 13 14 12 14 13 13 13 14 13 13 12 13 17 18 15 14 14 13 14 13 13 14 14 14 13 13 13 13 13 13 13 14
1 2 3 3 4 4 4 6 8 7 7 7 9 10 11 12 13 14 16 18 18 19 20 20 18 16 16 15 14 12 13 14 14 15 14 13 13 12 12 13 13 12 14 15 13 13 13 12 13 14 13 12 11 12 16 18 16 14 14 14 13 13 13 14 14 13 13 13 14 14 14 15 15 15
1 1 2 3 3 3 3 7 10 9 9 9 10 12 13 14 15 15 17 20 20 20 21 21 20 20 20 19 17 15 15 15 13 12 12 11 11 12 13 14 14 13 14 17 17 15 15 13 13 13 13 12 11 11 14 17 16 14 14 14 13 13 14 15 13 13 13 13 14 14 15 16 16 15
1 3 5 4 4 3 5 8 11 11 11 10 10 12 14 15 15 16 17 20 23 22 22 23 23 24 24 24 24 23 23 21 17 13 13 13 13 15 16 17 16 14 15 18 18 17 16 15 13 13 12 12 11 10 11 13 14 13 13 12 12 13 14 13 12 12 13 13 14 14 15 15 16 15
3 6 9 8 5 6 8 11 12 12 13 11 11 13 15 15 16 16 15 17 21 23 23 23 25 26 26 26 26 26 26 26 23 19 17 16 15 17 17 17 18 15 14 16 17 16 15 14 13 12 11 11 12 12 9 10 11 11 10 10 11 12 12 11 12 12 12 13 13 13 13 14 14 13
4 6 9 11 10 10 11 11 11 12 13 13 13 14 16 17 18 18 16 15 17 18 18 19 21 23 24 25 26 27 26 25 24 23 21 18 17 18 18 17 16 15 13 15 18 16 14 13 12 12 11 9 10 10 9 9 9 8 8 8 10 11 11 12 12 10 9 10 11 11 11 12 12 12
6 6 7 10 12 12 12 13 13 13 14 14 15 14 15 16 17 16 16 16 17 16 14 14 16 17 18 20 21 22 23 25 25 25 25 22 19 20 20 17 17 16 12 14 19 16 12 12 12 11 10 9 7 8 9 9 9 9 7 7 8 10 11 11 10 8 9 10 9 8 9 11 12 11
7 6 5 7 12 15 15 15 16 16 16 17 18 18 18 19 19 19 19 19 19 19 18 17 17 16 17 18 17 18 19 22 25 27 27 25 22 20 19 17 19 17 10 12 17 16 12 11 11 10 10 10 9 8 7 7 8 8 7 7 8 8 8 8 8 9 10 10 7 4 6 10 11 10
7 7 6 8 14 17 17 17 17 18 18 19 21 21 21 21 21 21 22 21 20 20 20 20 19 19 19 18 19 19 18 18 22 25 26 24 21 19 17 16 17 15 12 12 16 16 12 10 11 11 10 9 8 8 7 7 6 6 7 8 8 7 7 7 7 7 8 8 6 4 6 10 9 9
8 8 7 11 16 18 18 18 18 17 18 20 21 22 22 22 22 21 22 23 21 19 20 22 23 23 23 22 22 22 20 18 18 19 19 18 17 17 19 19 17 15 14 15 17 16 11 9 9 9 8 7 7 7 7 7 6 6 7 7 7 6 7 6 7 7 7 7 7 7 9 10 8 9
9 9 10 14 18 18 18 18 19 19 19 19 20 20 20 20 21 22 22 22 20 19 20 22 24 25 26 25 24 24 22 19 17 17 18 17 17 18 20 20 19 17 15 16 17 15 10 8 7 7 7 7 7 7 6 6 6 6 7 6 5 6 7 6 7 7 7 7 7 8 9 8 7 9
9 10 13 15 17 17 17 18 18 18 17 17 18 19 19 19 20 20 20 18 18 18 20 21 23 24 26 27 27 24 21 19 19 20 20 19 18 20 20 19 17 16 15 15 14 11 10 8 7 6 6 6 7 7 6 6 7 6 5 5 5 6 6 6 7 6 6 7 7 7 7 7 7 8
8 11 15 16 16 16 17 16 16 15 15 16 19 19 18 17 17 16 16 16 16 18 19 20 22 23 24 25 25 22 21 22 21 21 22 21 20 21 21 19 16 15 15 14 11 9 9 8 8 7 6 6 6 6 6 6 7 7 6 5 5 5 4 5 6 6 6 6 6 6 6 6 7 7
11 14 17 17 15 15 16 15 14 14 14 14 14 13 13 13 13 13 14 14 15 17 18 19 21 22 22 22 19 18 21 20 18 19 22 21 20 20 20 18 16 14 13 12 10 9 9 8 7 7 6 6 6 6 6 6 7 7 6 5 5 5 5 5 6 6 6 5 6 6 6 6 7 7
15 15 15 14 13 13 14 13 12 12 12 12 12 12 12 13 13 13 15 16 16 17 18 20 20 21 22 19 15 16 18 17 17 20 21 21 21 20 18 15 14 14 13 12 10 10 9 8 7 7 6 5 5 5 6 6 7 7 5 5 5 6 6 6 5 5 5 5 5 6 5 6 6 5
17 13 11 11 10 10 10 10 10 11 11 12 12 13 13 14 14 14 16 18 18 17 17 19 20 20 19 15 13 15 14 13 13 14 15 16 19 18 16 15 14 15 14 13 11 9 9 8 7 7 6 5 5 5 6 7 7 6 5 5 6 6 6 6 5 5 5 5 5 5 5 5 5 4
14 12 10 10 9 9 10 11 12 12 13 13 13 14 14 14 14 14 15 17 17 17 17 18 18 18 18 16 16 15 12 10 11 11 9 9 10 10 10 11 12 13 13 13 12 10 9 9 8 7 6 5 5 6 7 7 6 5 5 5 6 6 5 5 5 5 5 5 5 5 5 5 4 4
11 10 10 10 10 11 12 13 13 13 14 14 15 15 15 15 15 16 16 16 17 17 17 17 17 17 18 20 20 17 15 14 15 15 13 11 10 9 6 5 6 8 10 11 12 11 11 10 9 8 7 7 6 7 9 9 6 5 6 6 5 6 6 5 5 5 5 4 4 5 6 6 5 4
9 9 10 12 12 13 13 13 14 14 14 15 15 16 16 16 16 16 17 16 16 17 17 17 17 16 17 19 20 19 19 18 18 18 16 14 13 10 6 4 4 4 5 7 9 9 9 9 9 9 9 9 8 7 9 11 8 5 5 6 6 6 6 5 5 5 4 4 4 4 5 6 5 5
8 9 10 12 12 13 13 14 14 14 15 15 15 15 16 17 17 17 17 16 17 17 17 16 16 15 15 17 19 20 20 20 20 19 17 17 15 12 10 10 7 2 2 2 4 5 6 7 8 8 7 7 6 4 8 12 9 6 6 6 6 6 6 5 5 4 4 3 4 4 5 5 5 4
9 10 11 12 13 13 14 14 14 14 15 15 15 15 16 17 17 18 17 17 17 17 17 16 15 14 15 18 20 21 20 20 19 18 18 18 15 12 12 12 9 5 2 1 2 3 4 5 6 6 6 6 5 3 6 9 8 7 6 6 6 6 5 5 5 4 3 3 4 5 5 5 5 5
10 11 12 13 13 14 14 14 14 15 14 14 14 16 16 17 17 17 16 16 16 16 16 15 13 13 15 18 20 22 21 19 18 17 18 16 14 11 11 11 10 8 6 4 3 3 5 6 6 5 5 5 4 3 1 3 4 4 3 4 7 8 5 4 4 3 2 3 4 5 4 5 5 5
11 12 12 13 13 14 14 14 14 14 13 12 13 14 15 15 15 15 15 14 15 14 14 12 11 13 15 16 19 21 20 19 18 16 15 13 12 11 10 9 9 8 8 6 4 5 6 6 4 3 3 3 2 1 1 3 3 4 3 4 8 9 6 3 2 2 2 2 4 4 4 4 4 4
12 12 12 13 13 13 12 13 13 12 11 11 11 11 12 12 12 12 12 12 11 10 8 5 6 10 13 17 20 22 21 20 18 17 15 12 11 10 9 8 7 7 7 6 5 6 6 4 4 3 3 2 1 3 5 4 4 5 5 5 6 6 5 4 3 3 3 3 5 5 5 5 5 4
12 12 12 12 12 12 12 12 12 11 10 10 10 10 9 9 9 9 8 7 5 3 3 4 8 12 15 17 19 21 20 18 17 16 14 12 11 10 8 6 5 6 6 6 6 7 5 3 3 4 4 3 4 5 5 4 4 6 7 6 5 4 4 5 5 3 3 3 3 4 4 5 4 5
12 12 13 13 12 12 12 12 12 11 10 9 9 8 7 6 6 6 6 5 5 7 8 9 12 15 17 17 16 16 16 16 17 16 15 12 10 9 7 5 4 5 6 5 4 5 5 4 4 4 5 6 6 5 5 4 5 6 6 7 7 5 3 3 3 2 2 3 2 1 2 3 3 4
12 13 13 13 13 12 12 12 11 10 9 8 6 5 5 5 5 6 5 6 9 11 12 12 13 14 15 15 14 14 14 15 15 14 12 10 8 6 6 5 5 4 4 4 4 4 4 4 4 5 5 6 5 5 5 5 5 6 6 5 5 6 5 4 3 2 3 3 3 2 2 2 2 4
11 12 13 13 12 12 12 11 11 9 8 6 5 4 4 6 7 7 8 11 13 14 14 14 14 14 13 12 12 12 13 13 12 11 10 8 7 6 6 5 5 5 4 4 4 4 4 4 4 4 5 4 4 5 5 4 3 4 5 4 4 5 5 3 3 5 6 7 6 3 3 3 4 4
Wind_Direction
194 193 190 186 176 172 184 183 166 163 167 162 163 165 163 163 159 160 164 152 151 159 164 159 159 165 162 159 160 155 159 158 145 143 156 157 159 156 149 146 139 128 117 100 91 87 83 81 78 74 71 67 62 59 54 48 42 30 18 8 358 353 351 351 354 358 1 3 5 8 12 13 12 12
188 186 187 190 179 171 177 171 161 165 166 163 167 170 166 164 167 165 156 154 156 161 170 168 163 170 169 168 168 164 174 175 161 160 171 170 176 174 168 174 173 169 164 128 89 84 80 76 74 69 64 60 55 52 47 41 36 26 13 360 349 341 336 335 339 345 350 354 358 1 4 6 5 4
182 183 183 186 177 170 171 165 163 164 161 160 164 164 155 149 161 167 158 151 153 160 171 170 164 172 174 175 176 174 186 190 179 172 181 187 192 189 189 198 199 206 219 226 263 301 37 56 60 56 51 47 43 40 37 32 27 20 8 354 342 335 330 330 333 337 340 341 343 347 350 353 354 355
182 182 182 182 176 173 172 166 164 164 160 161 162 159 149 139 152 172 164 147 148 161 171 170 169 174 177 181 186 184 188 197 193 182 189 205 206 200 208 221 218 219 231 243 257 269 285 299 331 13 22 23 24 24 22 20 16 9 359 347 337 333 332 333 333 333 333 331 331 334 335 337 340 343
179 178 178 177 173 175 175 168 166 166 163 163 165 161 154 148 155 176 174 149 147 159 172 178 177 177 183 189 192 192 191 196 199 195 198 211 211 205 214 231 237 235 236 246 255 260 272 279 282 295 323 344 355 3 6 6 6 0 350 339 332 331 334 336 335 332 330 329 328 329 328 330 332 332
169 171 173 171 170 177 177 171 170 168 166 168 167 164 165 162 163 179 185 156 151 165 178 186 183 182 192 199 198 199 199 196 199 204 206 210 212 213 218 227 241 247 244 247 255 259 266 274 279 279 286 306 324 338 348 351 354 351 344 337 329 326 327 328 329 328 326 326 325 325 324 324 325 326
158 165 170 167 172 179 178 177 175 171 173 175 169 169 174 174 173 184 197 182 167 172 179 190 194 188 196 208 206 202 204 203 204 210 213 213 215 219 223 227 240 253 253 252 255 259 263 269 274 276 276 286 303 317 329 336 341 339 335 332 325 322 321 320 319 317 316 316 315 315 316 317 319 320
150 155 163 168 177 184 183 182 180 175 178 179 174 175 179 181 184 190 201 212 206 191 186 195 205 198 197 211 215 207 207 208 210 216 219 220 221 222 226 230 238 249 255 255 255 257 260 263 268 271 270 276 289 302 314 321 325 325 325 325 321 318 316 312 311 309 307 307 308 309 311 314 315 315
142 144 151 157 170 183 187 187 185 183 183 184 183 182 183 186 189 196 211 220 227 226 210 201 209 210 203 209 217 214 211 211 214 221 225 226 228 228 228 230 235 244 250 254 254 254 255 256 260 263 264 270 281 292 303 309 310 312 314 314 313 313 313 311 309 307 307 307 308 311 312 313 314 312
140 144 149 147 154 170 181 186 189 189 188 192 192 190 196 199 192 200 220 227 230 236 235 220 211 213 213 215 218 217 216 218 219 222 227 230 231 232 228 225 228 238 245 250 251 250 250 250 251 255 258 263 273 282 290 293 296 300 305 307 309 312 314 313 311 308 309 310 310 312 311 310 310 308
151 152 151 147 146 154 164 170 180 188 189 195 197 194 204 216 211 214 229 236 235 233 238 236 221 215 219 221 223 222 219 223 227 227 229 231 231 230 228 226 222 218 231 245 248 243 241 245 247 248 252 258 265 273 278 282 287 292 298 303 307 313 314 312 311 310 310 313 312 312 312 310 308 306
164 164 156 148 144 146 153 154 160 173 179 186 196 199 207 220 224 227 231 235 237 232 232 236 232 228 226 221 225 230 223 222 230 232 233 237 239 234 228 227 222 207 214 232 236 231 232 237 242 242 247 254 257 263 269 274 280 285 294 302 308 312 313 310 309 311 311 313 314 314 314 313 312 310
167 168 162 158 153 148 152 154 153 165 174 183 197 204 210 217 220 227 231 228 231 230 227 230 232 234 232 223 225 230 226 226 234 238 238 241 249 249 236 228 221 212 212 213 212 217 219 222 230 232 236 247 251 257 268 271 274 282 292 303 308 309 308 306 306 310 313 315 317 318 318 318 317 317
168 169 167 173 179 170 166 169 171 178 186 199 212 216 217 222 226 232 235 233 232 232 231 229 228 231 235 233 232 234 235 237 243 246 243 241 249 256 249 235 221 212 215 213 208 211 207 205 217 218 217 231 239 241 244 249 264 283 293 299 304 305 303 303 306 311 315 317 319 320 322 323 324 323
180 179 178 184 194 196 196 205 214 221 221 221 227 232 232 236 240 242 246 247 243 241 242 242 238 239 242 244 246 246 245 247 247 248 250 251 256 258 254 247 235 217 215 217 215 214 205 204 218 224 217 219 219 216 222 235 257 279 288 293 299 300 298 299 305 311 315 318 319 321 323 326 328 326
183 180 183 185 197 212 219 228 243 252 253 249 246 244 242 241 240 241 247 253 253 253 253 252 250 249 251 254 256 255 255 257 256 255 256 258 262 262 258 259 257 234 214 214 221 222 210 209 224 230 222 216 210 218 231 242 259 272 281 289 292 291 292 296 303 310 315 317 316 317 319 322 325 325
185 183 193 196 208 233 246 254 259 261 265 269 265 259 254 250 245 241 242 244 248 252 255 255 254 252 253 255 258 261 262 260 260 261 260 259 260 262 262 265 265 240 208 207 221 230 215 208 224 228 222 219 217 228 243 251 260 269 279 286 285 284 287 294 303 309 313 314 311 310 311 313 316 317
215 216 232 234 234 246 261 261 251 253 264 267 266 263 258 256 254 253 250 248 246 247 249 252 255 255 255 255 257 258 253 248 253 259 261 260 258 258 259 258 250 234 221 212 222 241 228 204 217 231 225 219 218 232 250 256 261 272 281 281 278 279 285 293 301 305 307 307 304 303 303 303 306 308
259 259 267 265 256 256 254 242 237 243 252 254 255 255 252 251 252 253 254 255 254 252 250 251 253 256 257 256 254 247 239 242 251 256 256 256 254 251 249 245 237 232 230 223 224 246 243 212 216 234 227 216 219 232 246 257 265 274 279 276 270 275 285 292 297 300 301 300 298 297 296 297 299 301
303 302 298 284 278 278 261 251 252 253 252 251 255 256 255 254 252 250 253 259 261 257 253 252 252 253 253 253 250 245 243 247 249 246 246 243 240 242 245 244 237 223 222 222 218 229 237 218 216 234 227 214 222 230 238 253 263 270 274 271 265 274 287 290 291 293 294 293 292 293 293 293 294 298
305 276 276 285 295 288 263 261 269 272 268 264 264 261 259 257 256 252 252 258 263 262 258 255 254 255 256 256 255 254 254 254 246 237 240 240 238 243 249 254 250 229 213 214 213 221 234 225 218 231 228 214 222 232 234 242 252 265 271 266 267 281 290 289 289 290 288 288 289 291 292 293 295 300
281 275 277 277 270 264 264 266 272 277 277 274 269 266 267 265 262 259 253 253 262 266 264 259 255 255 255 256 256 255 255 254 247 238 240 246 248 248 251 257 257 243 224 217 212 218 232 225 213 222 227 222 228 234 229 226 241 265 272 268 279 290 292 294 296 290 286 288 292 293 293 294 298 303
277 279 284 282 272 265 268 271 273 274 274 270 266 268 270 267 265 266 262 257 260 265 266 262 258 256 256 256 256 255 254 253 247 241 241 248 252 252 253 253 251 250 240 219 209 212 221 213 203 210 225 235 228 214 206 212 225 239 249 261 276 281 286 298 301 299 301 307 309 309 306 303 303 302
275 267 276 284 280 273 274 279 281 278 275 271 267 266 267 265 266 270 270 266 264 262 262 262 260 257 256 255 252 250 252 253 250 245 243 245 246 249 252 248 248 255 247 211 205 211 213 207 203 205 219 241 235 199 195 212 218 222 235 253 261 265 277 292 294 292 301 309 311 314 318 316 308 301
279 267 263 273 275 274 277 282 281 279 279 277 273 268 265 264 266 269 270 271 271 268 265 263 260 255 251 250 245 240 243 248 251 250 248 244 241 242 246 247 250 250 231 200 204 205 198 199 205 203 211 234 244 229 213 215 219 226 241 251 250 253 263 272 279 281 285 288 284 288 322 326 320 316
280 278 277 273 270 273 280 284 281 278 278 277 275 273 272 271 272 272 269 268 269 270 267 262 259 255 249 247 248 245 239 236 241 247 248 241 235 234 234 239 245 240 220 206 202 194 190 201 207 209 216 226 237 238 234 236 237 235 239 242 241 244 250 260 276 280 276 272 256 251 313 320 320 329
279 279 275 270 272 281 290 291 286 281 276 273 273 274 274 274 275 275 271 266 262 262 262 260 258 256 252 250 251 250 244 233 227 232 234 226 219 222 223 223 225 226 221 211 196 186 191 204 200 206 221 226 230 235 239 244 241 229 233 240 238 240 251 264 277 277 275 275 266 274 301 305 303 317
269 267 266 271 279 288 292 291 290 289 284 279 274 270 269 270 269 268 267 265 258 253 252 252 252 253 254 253 251 250 247 235 218 213 215 212 209 215 218 215 214 214 208 196 186 182 187 191 186 193 211 223 234 239 242 247 240 231 239 247 242 243 253 266 273 272 274 279 276 282 295 298 300 310
271 275 280 288 295 299 301 301 300 296 292 287 283 282 281 277 270 262 258 255 252 248 247 247 248 251 253 253 253 252 243 224 212 211 213 210 207 209 209 206 204 201 190 179 175 175 177 177 179 185 196 212 225 230 239 249 250 246 247 254 262 265 259 258 265 270 274 278 278 281 288 293 303 309
308 305 303 307 310 311 312 312 307 301 297 295 294 295 291 280 267 256 249 248 250 251 251 250 251 252 254 256 256 247 225 211 211 215 211 202 197 200 199 192 186 186 183 178 172 169 173 178 180 182 190 204 213 222 238 249 254 256 248 245 268 280 256 247 260 269 272 276 277 278 283 290 299 304
317 311 311 315 318 318 320 319 314 311 311 306 302 298 287 272 262 256 255 256 257 259 260 259 257 256 258 256 245 223 211 212 214 212 206 196 188 188 186 178 168 167 168 168 167 168 170 174 179 183 191 200 206 216 230 239 250 259 253 246 262 272 261 260 269 267 265 274 277 277 283 289 297 303
316 313 312 314 315 315 316 316 311 308 307 305 302 297 289 280 274 269 267 266 265 265 265 264 262 263 262 254 229 208 211 215 210 205 201 192 182 178 175 168 161 159 156 156 167 177 174 167 170 178 186 199 209 216 225 235 243 249 253 255 259 261 262 265 266 261 262 272 276 279 288 293 297 303
319 314 308 306 308 311 311 309 308 305 303 302 300 298 294 289 284 278 274 272 270 269 267 265 264 264 261 249 223 212 213 208 201 200 195 186 180 176 172 170 168 166 162 157 161 169 167 164 168 172 178 195 212 220 229 238 238 235 242 255 255 254 254 254 256 260 264 270 276 285 297 300 297 293
318 310 304 305 308 311 311 310 308 307 305 303 300 298 296 292 288 286 282 278 276 273 269 267 265 260 254 245 234 224 211 192 185 183 177 173 169 160 158 165 167 165 162 156 153 158 163 165 166 167 174 195 213 222 228 236 241 238 236 240 245 248 248 247 250 256 259 267 280 293 298 301 300 291
310 302 304 307 309 310 310 309 307 305 305 304 303 302 299 295 291 289 285 283 283 281 275 270 265 257 249 247 241 225 203 190 183 176 169 162 153 143 144 161 170 172 169 159 155 161 167 169 170 173 182 197 211 217 213 211 218 232 234 234 239 244 244 244 245 250 258 268 280 295 302 304 300 295
303 300 305 308 308 308 306 304 303 304 304 303 302 301 300 298 295 291 288 288 288 286 282 276 267 256 246 242 233 214 196 185 174 164 157 153 149 149 152 146 152 185 190 165 154 161 171 178 186 196 199 202 214 218 197 188 193 211 227 233 239 238 238 240 238 242 255 271 284 296 304 306 299 297
306 310 310 308 307 306 305 304 304 304 303 301 302 301 300 299 297 294 293 293 290 286 285 280 268 254 240 229 216 199 184 173 162 153 150 148 145 141 130 117 110 126 217 164 148 164 181 188 200 216 218 213 225 212 162 164 179 198 207 222 235 234 232 235 234 239 252 274 297 298 294 298 304 301
323 322 317 313 312 309 307 306 306 304 302 303 303 302 300 300 299 298 298 297 293 289 287 281 268 250 234 220 203 185 169 159 150 144 143 143 140 136 131 128 131 146 162 143 151 183 207 208 211 226 234 232 246 225 156 159 176 191 199 219 226 220 222 225 228 248 272 280 296 302 289 284 292 302
333 328 322 319 317 314 312 310 308 307 305 304 302 302 302 301 301 301 301 299 298 295 290 283 267 243 223 207 189 174 162 152 143 138 139 140 138 136 137 140 143 143 141 149 184 218 232 226 225 234 234 238 272 298 216 202 198 184 204 232 213 204 218 229 228 253 287 285 293 301 294 274 264 278
338 332 329 326 321 319 318 316 314 312 307 301 298 301 303 303 304 306 307 305 304 301 294 282 259 230 206 185 171 162 152 142 134 127 124 125 127 130 135 142 148 152 153 161 192 223 227 226 239 249 221 226 292 331 244 248 228 200 226 231 198 194 208 224 222 258 288 300 300 297 298 294 275 265
343 337 335 332 328 325 321 318 316 315 309 303 303 305 306 309 315 319 319 315 311 306 296 268 213 187 171 158 153 148 138 129 124 119 112 111 114 120 129 137 147 156 159 165 193 214 221 237 262 252 210 204 243 210 205 220 216 198 200 202 193 198 218 230 236 256 271 292 302 296 296 304 293 278
348 343 339 335 331 327 324 322 321 320 315 313 314 315 316 320 330 340 343 346 355 19 58 98 124 131 130 130 133 131 123 117 115 113 112 111 112 119 131 138 145 164 177 185 197 210 224 251 247 219 203 202 214 213 212 215 202 187 184 192 205 236 269 262 247 232 224 246 286 308 319 318 299 290
353 348 343 341 338 335 334 333 330 327 326 325 326 331 336 342 355 9 16 34 78 103 102 100 108 114 113 110 108 106 109 114 117 115 114 115 117 126 139 147 158 177 189 194 195 206 225 232 217 206 212 217 219 222 220 212 200 191 187 192 200 213 249 269 256 216 176 173 182 225 321 330 318 315
355 353 351 350 347 344 343 343 339 337 339 343 350 359 10 28 41 44 55 81 101 110 109 104 104 106 108 107 101 95 100 112 117 114 112 114 119 124 133 145 156 161 166 182 195 204 217 223 224 228 227 223 222 222 215 205 199 195 192 193 198 200 204 210 214 208 197 191 198 224 263 269 277 298
355 354 354 355 354 354 354 353 353 355 358 8 23 34 52 71 74 73 82 93 99 102 102 100 97 97 99 103 103 101 103 107 109 109 111 115 118 119 125 141 151 148 151 178 199 206 209 214 228 237 228 217 215 212 207 205 203 195 196 207 214 211 210 214 225 231 231 225 225 244 287 283 271 279